Regional Weather Roundup
Issued by NWS

Home | Current Version | Previous Version | Text Only | Print | Product List | Glossary On
Versions: 1 2 3 4 5 6 7 8 9 10 11 12 13 14 15 16 17 18 19 20 21 22 23 24 25 26 27 28 29 30 31 32 33 34 35 36 37 38 39 40 41 42 43 44 45 46 47 48 49 50
000
ASUS43 KDTX 280101
RWRMI
MICHIGAN HOURLY REGIONAL WEATHER ROUNDUP
NATIONAL WEATHER SERVICE DETROIT/PONTIAC MI
900 PM EDT THU APR 27 2017

NOTE: "FAIR" INDICATES FEW OR NO CLOUDS BELOW 12,000 FEET WITH NO
SIGNIFICANT WEATHER AND/OR OBSTRUCTION TO VISIBILITY.

MIZ047>049-052>055-059>063-066>070-074>076-081>083-280200-
SOUTHEAST LOWER MICHIGAN

CITY           SKY/WX    TMP DP  RH WIND       PRES   REMARKS
ADRIAN         CLOUDY    50  41  71 W10G23    29.77R
ALMA           CLOUDY    46  39  75 SW10G22   29.71S
ANN ARBOR      CLOUDY    51  41  68 SW16G24   29.74R
BAD AXE        CLOUDY    50  40  67 W24G32    29.66R
CARO           CLOUDY    49  39  68 SW16G24   29.68R
DETROIT CITY   CLOUDY    55  42  61 W21G30    29.71R
DETROIT        CLOUDY    54  40  59 W20G31    29.74R
FLINT          CLOUDY    50  40  68 W15G25    29.71R
GROSSE ILE     CLOUDY    54  42  63 W16G26    29.73R
HILLSDALE      CLOUDY    46  37  71 W12G25    29.75R
HOWELL         CLOUDY    48  40  71 W10G21    29.73R

CITY           SKY/WX    TMP DP  RH WIND       PRES   REMARKS
JACKSON        CLOUDY    49  38  65 SW18      29.74R
LAMBERTVILLE   CLOUDY    53  42  68 W10G16    29.76R
LANSING        CLOUDY    49  37  63 SW13G23   29.74R
LAPEER         CLOUDY    52  42  69 W13G22    29.69R
MASON          CLOUDY    48  40  73 SW8G18    29.74R
MONROE         CLOUDY    53  41  64 W17G29    29.74R
MT. CLEMENS    MOCLDY    56  43  60 W20G29    29.69R
PONTIAC        CLOUDY    52  41  66 W24G30    29.70R
PORT HOPE        N/A     52  41  66 W10G26    29.63R
PORT HURON     CLOUDY    57  41  54 W7        29.68R
TRI CITIES     CLOUDY    48  39  71 W20G26    29.69R
MIDLAND        CLOUDY    47  36  64 W13G24    29.68R
TROY           CLOUDY    55  39  54 SW15G23   29.73R
SAGINAW HB     CLOUDY    50  34  53 SW17G30   29.69R
$$
MIZ043>046-050>051-056>058-064>065-071>073-077>080-280200-
SOUTHWEST LOWER MICHIGAN

CITY           SKY/WX    TMP DP  RH WIND       PRES   REMARKS
BATTLE CREEK   CLOUDY    48  39  71 SW12      29.75R
BENTON HARBOR  CLOUDY    47  38  71 SW15      29.76R
BIG RAPIDS     CLOUDY    40  37  89 SW10      29.69R FOG     WCI  34
COLDWATER      CLOUDY    48  38  69 SW10      29.77R
FREMONT        DRIZZLE   41  41  99 SW12G17   29.71R
HOLLAND        CLOUDY    44  39  82 SW12      29.75R
GRAND RAPIDS   CLOUDY    44  41  89 SW16G25   29.73R
IONIA          CLOUDY    47  38  71 SW15      29.72R
KALAMAZOO      CLOUDY    48  37  65 SW10      29.76R
LUDINGTON      CLOUDY    41  38  89 S14       29.68R
MARSHALL       CLOUDY    48  37  66 SW12G20   29.74S
MOUNT PLEASANT CLOUDY    44  38  77 SW9G22    29.70R
MUSKEGON       CLOUDY    43  40  89 SW14      29.73R
SOUTH HAVEN    CLOUDY    46  39  77 W7G17     29.76R
$$
MIZ016>042-280200-
NORTHERN LOWER MICHIGAN

CITY           SKY/WX    TMP DP  RH WIND       PRES   REMARKS
ALPENA         CLOUDY    50  36  58 SW16G31   29.60R
BEAVER ISLAND  CLOUDY    35  34  96 W18G24    29.61R FOG     WCI  25
BELLAIRE       CLOUDY    41  32  70 SW6G17    29.66R
CADILLAC       CLOUDY    40  32  74 SW16G24   29.65R WCI  31
CHARLEVOIX     CLOUDY    40  34  80 SW18G29   29.65R WCI  31
FRANKFORT      CLOUDY    40  35  80 SW9G16    29.67R WCI  35
GAYLORD        CLOUDY    42  31  64 SW22G29   29.61R
GRAYLING       CLOUDY    41  31  68 SW12G26   29.65R
HARBOR SPRINGS CLOUDY    39  35  84 SW20G26   29.62R WCI  30
HOUGHTON LAKE  CLOUDY    43  33  68 W17G28    29.65R
MANISTEE       CLOUDY    42  34  73 SW8       29.68R
OSCODA         MOCLDY    50  36  59 SW24G35   29.61R
PELLSTON       CLOUDY    40  32  73 W16G30    29.61R WCI  31
ROGERS CITY    CLOUDY    49  37  63 SW17G23   29.59R
TRAVERSE CITY  CLOUDY    42  32  67 SW10G16   29.64R
$$
MIZ007>008-015-280200-
EASTERN UPPER MICHIGAN

CITY           SKY/WX    TMP DP  RH WIND       PRES   REMARKS
KINROSS        LGT RAIN  38  36  92 SW12G22   29.57R WCI  30
MACKINAC ISLAN CLOUDY    38  37  97 SW17G31   29.60R WCI  28
NEWBERRY       LGT SNOW  34  33  97 W8        29.56R WCI  27
S. S. MARIE    LGT RAIN  41  38  89 SW12      29.55R FOG
MUNISING         N/A     33  30  88 SW6       29.57R WCI  28
$$
MIZ004>006-011>014-085-280200-
CENTRAL UPPER MICHIGAN

CITY           SKY/WX    TMP DP  RH WIND       PRES   REMARKS
MANISTIQUE     CLOUDY    33  32  97 W5        29.60R WCI  28
ESCANABA       LGT RAIN  35  33  92 SW3       29.60R
MENOMINEE      CLOUDY    37  32  82 W5        29.63R WCI  33
SAWYER-GWINN   CLOUDY    30  28  93 SW7       29.54R WCI  23
$$
MIZ001>003-009>011-084-280200-
WESTERN UPPER MICHIGAN

CITY           SKY/WX    TMP DP  RH WIND       PRES   REMARKS
IRON MOUNTAIN  CLOUDY    33  27  78 W8        29.56R WCI  26
HOUGHTON       MIX PCPN  28  22  78 W20G29    29.50R WCI  15
COPPER HARBOR    N/A     28  25  88 NW10G17   29.50  WCI  19
IRONWOOD       LGT SNOW  27  24  89 W12       29.59R FOG     WCI  17
$$

ABBREVIATIONS USED IN REMARKS
   TC - TEMPERATURE IN CELSIUS
  WCI - WIND CHILL INDEX
   HX - HEAT INDEX
  VSB - VISIBILITY





USA.gov is the U.S. government's official web portal to all federal, state and local government web resources and services.